Location: Ariel
(45.9570°N, 122.5700°W)
Time: 07:42:58
(UTC-07:00)

Vanguard 1 Rocket - All Passes

Search period start: 21 July 2019 00:00
Search period end: 31 July 2019 00:00
Orbit: 651 x 4225 km, 34.3° (Epoch: 20 July)

Date Brightness Start Highest point End Pass type
(mag) Time Alt. Az. Time Alt. Az. Time Alt. Az.
21 Jul - 09:07:47 10° SSW 09:21:34 33° SE 09:41:30 10° E daylight
21 Jul - 11:30:41 10° SW 11:49:47 57° SSE 12:14:48 10° E daylight
21 Jul - 13:57:55 10° W 14:21:15 60° S 14:44:25 10° ESE daylight
21 Jul - 16:28:41 10° W 16:51:29 42° SW 17:09:37 10° SSE daylight
21 Jul - 19:07:06 10° W 19:17:28 15° WSW 19:26:16 10° SSW daylight
22 Jul - 07:59:35 10° S 08:09:51 21° SE 08:24:00 10° E daylight
22 Jul - 10:19:36 10° SW 10:35:58 49° SSE 10:59:48 10° E daylight
22 Jul - 12:45:03 10° WSW 13:06:21 62° S 13:31:11 10° ESE daylight
22 Jul - 15:14:02 10° W 15:37:40 51° SSW 15:58:37 10° SE daylight
22 Jul - 17:47:34 10° W 18:05:40 26° SW 18:20:10 10° S daylight
23 Jul - 09:09:28 10° SSW 09:23:07 38° SE 09:43:57 10° E daylight
23 Jul - 11:33:01 10° WSW 11:51:43 59° SSE 12:17:00 10° E daylight
23 Jul - 14:00:21 10° W 14:23:08 58° SSW 14:46:30 10° ESE daylight
23 Jul - 16:31:16 10° W 16:52:58 37° SW 17:11:02 10° SSE daylight
23 Jul - 19:15:28 10° WSW 19:18:37 10° WSW 19:21:38 10° SW daylight
24 Jul - 08:00:36 10° S 08:11:18 26° SE 08:27:04 10° E daylight
24 Jul - 10:21:47 10° SW 10:37:48 52° SSE 11:01:59 10° E daylight
24 Jul - 12:47:31 10° WSW 13:08:19 61° S 13:33:18 10° ESE daylight
24 Jul - 15:16:31 10° W 15:39:19 47° SSW 16:00:21 10° SE daylight
24 Jul - 17:51:06 10° W 18:06:55 21° SW 18:20:20 10° SSW daylight
25 Jul - 06:54:22 10° SSE 07:00:21 14° ESE 07:07:48 10° E daylight
25 Jul - 09:11:26 10° SSW 09:24:50 42° SSE 09:46:14 10° E daylight
25 Jul - 11:35:28 10° WSW 11:53:43 60° S 12:19:08 10° ESE daylight
25 Jul - 14:02:51 10° W 14:24:59 55° SSW 14:48:25 10° SE daylight
25 Jul - 16:34:04 10° W 16:54:21 32° SW 17:12:04 10° S daylight
26 Jul - 08:02:06 10° S 08:12:53 30° SE 08:29:44 10° E daylight
26 Jul - 10:24:10 10° SW 10:39:45 55° SSE 11:04:06 10° E daylight
26 Jul - 12:50:03 10° W 13:10:18 59° S 13:35:19 10° ESE daylight
26 Jul - 15:19:07 10° W 15:40:55 42° SSW 16:01:48 10° SSE daylight
26 Jul - 17:55:38 10° W 18:08:06 16° SW 18:19:20 10° SSW daylight
27 Jul - 06:54:28 10° SSE 07:01:50 18° SE 07:11:56 10° E daylight
27 Jul - 09:13:37 10° SW 09:26:41 46° SSE 09:48:24 10° E daylight
27 Jul - 11:38:00 10° WSW 11:55:46 60° S 12:21:11 10° ESE daylight
27 Jul - 14:05:25 10° W 14:26:47 51° SSW 14:50:06 10° SE daylight
27 Jul - 16:37:14 10° W 16:55:41 27° SW 17:12:34 10° S daylight
28 Jul - 08:03:57 10° SSW 08:14:37 34° SE 08:32:10 10° E daylight
28 Jul - 10:26:39 10° WSW 10:41:48 57° SSE 11:06:10 10° E daylight
28 Jul - 12:52:39 10° W 13:12:17 57° SSW 13:37:10 10° SE daylight
28 Jul - 15:21:53 10° W 15:42:27 37° SW 16:02:53 10° SSE daylight
28 Jul - 18:02:45 10° WSW 18:09:18 12° WSW 18:15:35 10° SW daylight
29 Jul - 06:55:32 10° S 07:03:28 22° SE 07:15:13 10° E daylight
29 Jul - 09:15:59 10° SW 09:28:40 50° SSE 09:50:30 10° E daylight
29 Jul - 11:40:37 10° WSW 11:57:52 59° S 12:23:07 10° ESE daylight
29 Jul - 14:08:05 10° W 14:28:32 46° SSW 14:51:32 10° SE daylight
29 Jul - 16:40:56 10° W 16:57:01 22° SW 17:12:19 10° S daylight
30 Jul - 08:06:04 10° SSW 08:16:30 38° SE 08:34:27 10° E daylight
30 Jul - 10:29:15 10° WSW 10:43:57 58° S 11:08:09 10° ESE daylight
30 Jul - 12:55:18 10° W 13:14:14 53° SSW 13:38:50 10° SE daylight
30 Jul - 15:24:54 10° W 15:43:57 31° SW 16:03:33 10° SSE daylight
